#timestamp,LO_Frequency,Hit,StdDev 
1609138815.4,286046999.2,P
1609138835.3,286046999.4,N
1609138855.1,286046996.9,Y
1609138875.8,286046999.6,P
1609138895.7,286046999.6,N
1609138915.5,286046995.6,P
1609138935.3,286046997.8,N
1609138955.2,286046997.6,N
1609138975.0,286046994.9,Y
1609138975.9,286046994.9,P
1609138995.7,286046997.3,N
1609139015.6,286046997.4,N
1609139035.4,286046997.3,N
1609139055.2,286046997.8,N
1609139075.1,286046997.2,N
1609139076.0,286046997.2,N
1609139095.8,286046997.5,N
1609139115.6,286046998.0,N
1609139135.5,286046995.0,Y
1609139155.3,286046996.7,P
1609139175.2,286046998.7,P
1609139195.9,286046997.5,P
1609139215.7,286046996.7,Y
1609139235.6,286047000.2,P
1609139255.4,286047000.7,N
1609139275.2,286047001.1,N
1609139295.1,286046998.1,N
1609139296.0,286046998.1,N
1609139315.8,286046996.5,N
1609139335.6,286046999.3,N
1609139355.5,286046996.5,N
1609139375.3,286046999.3,N
1609139395.1,286046997.3,N
1609139415.9,286046997.8,N
1609139435.7,286046995.3,Y
1609139455.5,286046999.2,P
1609139475.4,286046996.5,P
1609139495.2,286046997.0,N
1609139515.0,286046997.4,N
1609139515.9,286046997.4,N
1609139535.8,286046997.5,N
1609139555.6,286046995.5,Y
1609139575.4,286046999.1,P
1609139595.3,286046998.4,N
1609139615.1,286046997.0,P
1609139635.8,286046997.0,Y
1609139655.7,286047001.0,P
1609139675.5,286047000.0,N
1609139695.3,286046998.7,N
1609139715.2,286047001.2,N
1609139735.0,286046998.6,N
1609139735.9,286046998.6,N
1609139755.7,286046999.3,N
1609139775.6,286046996.8,N
1609139795.4,286046997.0,N
1609139815.2,286046996.6,N
1609139835.1,286046997.2,N
1609139836.0,286046997.2,N
1609139855.8,286046995.5,Y
1609139875.7,286046996.8,P
1609139895.5,286046997.9,N
1609139915.3,286046995.3,P
1609139935.2,286046998.0,N
1609139955.9,286046995.0,Y
1609139975.7,286046998.5,P
1609139995.6,286046998.1,P
1609140015.4,286046999.0,N
1609140035.2,286046996.6,Y
1609140055.1,286047001.1,P
1609140056.0,286047001.1,N
1609140075.8,286046998.1,N
1609140095.6,286047001.2,N
1609140115.5,286047000.7,N
1609140135.3,286047000.6,N
1609140155.1,286047000.4,N
1609140175.9,286047000.9,N
1609140195.7,286047000.2,N
1609140215.5,286047000.4,N
1609140235.4,286047000.7,N
1609140255.2,286047002.6,N
1609140275.0,286047002.3,N
1609140275.9,286047002.3,N
1609140295.8,286047000.2,N
1609140315.6,286047000.0,N
1609140335.4,286047000.1,N
1609140355.3,286047000.2,N
1609140375.1,286047000.6,N
1609140376.0,286047000.6,N
1609140395.8,286047001.1,N
1609140415.7,286047000.5,N
1609140435.5,286046998.1,N
1609140455.3,286047001.1,N
1609140475.2,286046998.7,N
1609140495.9,286047000.8,N
1609140515.7,286046998.1,N
1609140535.6,286047000.5,N
1609140555.4,286047000.2,N
1609140575.2,286047002.8,N
1609140595.1,286047000.0,N
1609140596.0,286047000.0,N
1609140615.8,286046999.8,N
1609140635.6,286047000.3,N
1609140655.5,286046999.8,N
1609140675.3,286046999.7,N
1609140695.1,286046999.7,N
1609140715.9,286046999.8,N
1609140735.7,286046999.7,N
1609140755.5,286047000.2,N
1609140775.4,286047002.4,N
1609140795.2,286047002.2,N
1609140815.0,286047002.5,N
1609140815.9,286047002.5,N
1609140835.8,286047001.6,N
1609140855.6,286047002.0,N
1609140875.4,286047002.1,N
1609140895.3,286046999.7,N
1609140915.1,286047001.6,N
1609140935.8,286047001.8,N
1609140955.7,286047004.3,Y
1609140975.5,286047004.3,P
1609140995.4,286047003.5,N
1609141015.2,286047003.1,N
1609141035.0,286047003.2,N
1609141035.9,286047003.2,N
1609141055.8,286047003.3,N
1609141075.6,286047004.2,Y
1609141095.4,286047000.4,P
1609141115.3,286046999.7,N
1609141135.1,286047002.6,N
1609141136.0,286047002.6,N
1609141155.8,286047002.4,N
1609141175.7,286047002.8,N
1609141195.5,286047002.8,N
1609141215.3,286047002.2,N
1609141235.2,286047003.7,Y
1609141255.9,286046999.7,P
1609141275.7,286047002.1,N
1609141295.6,286047001.5,N
1609141315.4,286047002.6,N
1609141335.2,286046999.8,N
1609141355.1,286046999.9,N
1609141356.0,286046999.9,N
1609141375.8,286047002.5,N
1609141395.6,286047001.4,N
1609141415.5,286047001.5,N
1609141435.3,286047001.9,N
1609141455.1,286047004.0,Y
1609141475.9,286047002.7,P
1609141495.7,286047001.4,N
1609141515.5,286047004.1,P
1609141535.4,286047004.0,Y
1609141555.2,286047002.4,P
1609141575.0,286046999.9,P
1609141575.9,286046999.9,N
1609141595.8,286047002.4,N
1609141615.6,286047000.2,N
1609141635.4,286047002.7,N
1609141655.3,286047001.8,N
1609141675.1,286047004.0,Y
1609141695.8,286047000.2,P
1609141715.7,286047002.5,P
1609141735.5,286047002.1,N
1609141755.3,286047002.6,N
1609141775.2,286047001.7,N
1609141795.0,286047001.9,N
1609141795.9,286047001.9,N
1609141815.7,286047001.3,N
1609141835.6,286047003.5,Y
1609141855.4,286047001.9,P
1609141875.2,286047004.3,P
1609141895.1,286047004.4,P
1609141896.0,286047004.4,Y
1609141915.8,286047000.4,P
1609141935.6,286047000.9,N
1609141955.5,286046999.7,N
1609141975.3,286047001.9,N
1609141995.1,286047002.7,N
1609142015.9,286047001.9,N
1609142035.7,286047002.0,N
1609142055.5,286047004.4,Y
1609142075.4,286047001.8,P
1609142095.2,286047003.4,P
1609142115.0,286047003.0,P
1609142116.0,286047003.0,Y
1609142135.8,286046999.7,P
1609142155.6,286047002.7,N
1609142175.5,286047003.8,N
1609142195.3,286047001.7,N
1609142215.1,286047003.2,N
1609142235.9,286047004.0,Y
1609142255.7,286047001.4,P
1609142275.5,286047003.9,P
1609142295.4,286047002.6,N
1609142315.2,286047004.3,Y
1609142335.0,286047000.5,P
1609142335.9,286047000.5,N
1609142355.8,286047000.0,N
1609142375.6,286047002.2,N
1609142395.4,286047002.5,N
